Year,Month,Day,Hour,Minute,Value (Times are PST for temperature in C)
2014,05,12,00,00,11.00
2014,05,12,00,01,11.00
2014,05,12,00,02,10.90
2014,05,12,00,03,10.90
2014,05,12,00,04,10.90
2014,05,12,00,05,10.90
2014,05,12,00,06,10.90
2014,05,12,00,07,10.90
2014,05,12,00,08,10.90
2014,05,12,00,09,10.80
2014,05,12,00,10,10.80
2014,05,12,00,11,10.80
2014,05,12,00,12,10.80
2014,05,12,00,13,10.80
2014,05,12,00,14,10.80
2014,05,12,00,15,10.80
2014,05,12,00,16,10.70
2014,05,12,00,17,10.70
2014,05,12,00,18,10.70
2014,05,12,00,19,10.70
2014,05,12,00,20,10.70
2014,05,12,00,21,10.70
2014,05,12,00,22,10.70
2014,05,12,00,23,10.70
2014,05,12,00,24,10.70
2014,05,12,00,25,10.70
2014,05,12,00,26,10.70
2014,05,12,00,27,10.70
2014,05,12,00,28,10.70
2014,05,12,00,29,10.70
2014,05,12,00,30,10.80
2014,05,12,00,31,10.80
2014,05,12,00,32,10.80
2014,05,12,00,33,10.80
2014,05,12,00,34,10.80
2014,05,12,00,35,10.80
2014,05,12,00,36,10.80
2014,05,12,00,37,10.80
2014,05,12,00,38,10.80
2014,05,12,00,39,10.80
2014,05,12,00,40,10.80
2014,05,12,00,41,10.80
2014,05,12,00,42,10.80
2014,05,12,00,43,10.80
2014,05,12,00,44,10.80
2014,05,12,00,45,10.80
2014,05,12,00,46,10.80
2014,05,12,00,47,10.80
2014,05,12,00,48,10.80
2014,05,12,00,49,10.70
2014,05,12,00,50,10.70
2014,05,12,00,51,10.70
2014,05,12,00,52,10.70
2014,05,12,00,53,10.70
2014,05,12,00,54,10.70
2014,05,12,00,55,10.60
2014,05,12,00,56,10.60
2014,05,12,00,57,10.60
2014,05,12,00,58,10.50
2014,05,12,00,59,10.50
2014,05,12,01,00,10.50
2014,05,12,01,01,10.40
2014,05,12,01,02,10.40
2014,05,12,01,03,10.30
2014,05,12,01,04,10.30
2014,05,12,01,05,10.30
2014,05,12,01,06,10.30
2014,05,12,01,07,10.20
2014,05,12,01,08,10.20
2014,05,12,01,09,10.20
2014,05,12,01,10,10.20
2014,05,12,01,11,10.20
2014,05,12,01,12,10.10
2014,05,12,01,13,10.10
2014,05,12,01,14,10.10
2014,05,12,01,15,10.10
2014,05,12,01,16,10.10
2014,05,12,01,17,10.10
2014,05,12,01,18,10.10
2014,05,12,01,19,10.10
2014,05,12,01,20,10.10
2014,05,12,01,21,10.00
2014,05,12,01,22,10.00
2014,05,12,01,23,10.00
2014,05,12,01,24,10.00
2014,05,12,01,25,9.90
2014,05,12,01,26,9.90
2014,05,12,01,27,9.90
2014,05,12,01,28,9.90
2014,05,12,01,29,9.90
2014,05,12,01,30,9.90
2014,05,12,01,31,9.90
2014,05,12,01,32,9.90
2014,05,12,01,33,9.90
2014,05,12,01,34,9.90
2014,05,12,01,35,9.90
2014,05,12,01,36,9.90
2014,05,12,01,37,9.90
2014,05,12,01,38,9.90
2014,05,12,01,39,9.90
2014,05,12,01,40,9.90
2014,05,12,01,41,9.90
2014,05,12,01,42,9.90
2014,05,12,01,43,9.90
2014,05,12,01,44,9.90
2014,05,12,01,45,9.90
2014,05,12,01,46,9.90
2014,05,12,01,47,9.90
2014,05,12,01,48,9.90
2014,05,12,01,49,9.90
2014,05,12,01,50,9.90
2014,05,12,01,51,9.90
2014,05,12,01,52,9.90
2014,05,12,01,53,9.90
2014,05,12,01,54,9.80
2014,05,12,01,55,9.80
2014,05,12,01,56,9.80
2014,05,12,01,57,9.80
2014,05,12,01,58,9.80
2014,05,12,01,59,9.80
2014,05,12,02,00,9.80
2014,05,12,02,01,9.70
2014,05,12,02,02,9.70
2014,05,12,02,03,9.70
2014,05,12,02,04,9.70
2014,05,12,02,05,9.70
2014,05,12,02,06,9.70
2014,05,12,02,07,9.70
2014,05,12,02,08,9.70
2014,05,12,02,09,9.70
2014,05,12,02,10,9.70
2014,05,12,02,11,9.70
2014,05,12,02,12,9.70
2014,05,12,02,13,9.70
2014,05,12,02,14,9.70
2014,05,12,02,15,9.70
2014,05,12,02,16,9.70
2014,05,12,02,17,9.70
2014,05,12,02,18,9.70
2014,05,12,02,19,9.70
2014,05,12,02,20,9.70
2014,05,12,02,21,9.70
2014,05,12,02,22,9.70
2014,05,12,02,23,9.70
2014,05,12,02,24,9.60
2014,05,12,02,25,9.60
2014,05,12,02,26,9.60
2014,05,12,02,27,9.60
2014,05,12,02,28,9.60
2014,05,12,02,29,9.60
2014,05,12,02,30,9.60
2014,05,12,02,31,9.60
2014,05,12,02,32,9.60
2014,05,12,02,33,9.60
2014,05,12,02,34,9.50
2014,05,12,02,35,9.50
2014,05,12,02,36,9.50
2014,05,12,02,37,9.40
2014,05,12,02,38,9.40
2014,05,12,02,39,9.40
2014,05,12,02,40,9.40
2014,05,12,02,41,9.40
2014,05,12,02,42,9.30
2014,05,12,02,43,9.30
2014,05,12,02,44,9.30
2014,05,12,02,45,9.30
2014,05,12,02,46,9.30
2014,05,12,02,47,9.30
2014,05,12,02,48,9.20
2014,05,12,02,49,9.20
2014,05,12,02,50,9.20
2014,05,12,02,51,9.20
2014,05,12,02,52,9.20
2014,05,12,02,53,9.20
2014,05,12,02,54,9.20
2014,05,12,02,55,9.20
2014,05,12,02,56,9.20
2014,05,12,02,57,9.20
2014,05,12,02,58,9.20
2014,05,12,02,59,9.20
2014,05,12,03,00,9.20
2014,05,12,03,01,9.20
2014,05,12,03,02,9.20
2014,05,12,03,03,9.20
2014,05,12,03,04,9.20
2014,05,12,03,05,9.20
2014,05,12,03,06,9.20
2014,05,12,03,07,9.20
2014,05,12,03,08,9.20
2014,05,12,03,09,9.20
2014,05,12,03,10,9.20
2014,05,12,03,11,9.20
2014,05,12,03,12,9.20
2014,05,12,03,13,9.20
2014,05,12,03,14,9.10
2014,05,12,03,15,9.10
2014,05,12,03,16,9.10
2014,05,12,03,17,9.10
2014,05,12,03,18,9.10
2014,05,12,03,19,9.20
2014,05,12,03,20,9.20
2014,05,12,03,21,9.20
2014,05,12,03,22,9.20
2014,05,12,03,23,9.20
2014,05,12,03,24,9.20
2014,05,12,03,25,9.20
2014,05,12,03,26,9.20
2014,05,12,03,27,9.20
2014,05,12,03,28,9.30
2014,05,12,03,29,9.30
2014,05,12,03,30,9.30
2014,05,12,03,31,9.40
2014,05,12,03,32,9.40
2014,05,12,03,33,9.40
2014,05,12,03,34,9.40
2014,05,12,03,35,9.40
2014,05,12,03,36,9.40
2014,05,12,03,37,9.40
2014,05,12,03,38,9.40
2014,05,12,03,39,9.40
2014,05,12,03,40,9.40
2014,05,12,03,41,9.40
2014,05,12,03,42,9.40
2014,05,12,03,43,9.40
2014,05,12,03,44,9.40
2014,05,12,03,45,9.40
2014,05,12,03,46,9.40
2014,05,12,03,47,9.30
2014,05,12,03,48,9.30
2014,05,12,03,49,9.30
2014,05,12,03,50,9.30
2014,05,12,03,51,9.30
2014,05,12,03,52,9.30
2014,05,12,03,53,9.30
2014,05,12,03,54,9.30
2014,05,12,03,55,9.30
2014,05,12,03,56,9.30
2014,05,12,03,57,9.30
2014,05,12,03,58,9.20
2014,05,12,03,59,9.20
2014,05,12,04,00,9.20
2014,05,12,04,01,9.20
2014,05,12,04,02,9.20
2014,05,12,04,03,9.20
2014,05,12,04,04,9.10
2014,05,12,04,05,9.10
2014,05,12,04,06,9.10
2014,05,12,04,07,9.10
2014,05,12,04,08,9.10
2014,05,12,04,09,9.10
2014,05,12,04,10,9.10
2014,05,12,04,11,9.00
2014,05,12,04,12,9.00
2014,05,12,04,13,9.00
2014,05,12,04,14,8.90
2014,05,12,04,15,8.90
2014,05,12,04,16,8.90
2014,05,12,04,17,8.90
2014,05,12,04,18,8.90
2014,05,12,04,19,8.80
2014,05,12,04,20,8.80
2014,05,12,04,21,8.80
2014,05,12,04,22,8.80
2014,05,12,04,23,8.80
2014,05,12,04,24,8.80
2014,05,12,04,25,8.80
2014,05,12,04,26,8.70
2014,05,12,04,27,8.70
2014,05,12,04,28,8.70
2014,05,12,04,29,8.70
2014,05,12,04,30,8.70
2014,05,12,04,31,8.70
2014,05,12,04,32,8.70
2014,05,12,04,33,8.70
2014,05,12,04,34,8.70
2014,05,12,04,35,8.70
2014,05,12,04,36,8.70
2014,05,12,04,37,8.70
2014,05,12,04,38,8.70
2014,05,12,04,39,8.70
2014,05,12,04,40,8.70
2014,05,12,04,41,8.70
2014,05,12,04,42,8.70
2014,05,12,04,43,8.70
2014,05,12,04,44,8.70
2014,05,12,04,45,8.70
2014,05,12,04,46,8.70
2014,05,12,04,47,8.70
2014,05,12,04,48,8.70
2014,05,12,04,49,8.60
2014,05,12,04,50,8.60
2014,05,12,04,51,8.60
2014,05,12,04,52,8.60
2014,05,12,04,53,8.60
2014,05,12,04,54,8.60
2014,05,12,04,55,8.60
2014,05,12,04,56,8.60
2014,05,12,04,57,8.60
2014,05,12,04,58,8.60
2014,05,12,04,59,8.60
2014,05,12,05,00,8.50
2014,05,12,05,01,8.50
2014,05,12,05,02,8.50
2014,05,12,05,03,8.50
2014,05,12,05,04,8.50
2014,05,12,05,05,8.50
2014,05,12,05,06,8.50
2014,05,12,05,07,8.40
2014,05,12,05,08,8.40
2014,05,12,05,09,8.40
2014,05,12,05,10,8.40
2014,05,12,05,11,8.40
2014,05,12,05,12,8.40
2014,05,12,05,13,8.40
2014,05,12,05,14,8.40
2014,05,12,05,15,8.40
2014,05,12,05,16,8.40
2014,05,12,05,17,8.40
2014,05,12,05,18,8.40
2014,05,12,05,19,8.40
2014,05,12,05,20,8.40
2014,05,12,05,21,8.30
2014,05,12,05,22,8.30
2014,05,12,05,23,8.30
2014,05,12,05,24,8.30
2014,05,12,05,25,8.30
2014,05,12,05,26,8.30
2014,05,12,05,27,8.30
2014,05,12,05,28,8.30
2014,05,12,05,29,8.30
2014,05,12,05,30,8.30
2014,05,12,05,31,8.30
2014,05,12,05,32,8.30
2014,05,12,05,33,8.20
2014,05,12,05,34,8.20
2014,05,12,05,35,8.20
2014,05,12,05,36,8.20
2014,05,12,05,37,8.20
2014,05,12,05,38,8.20
2014,05,12,05,39,8.20
2014,05,12,05,40,8.20
2014,05,12,05,41,8.20
2014,05,12,05,42,8.20
2014,05,12,05,43,8.20
2014,05,12,05,44,8.30
2014,05,12,05,45,8.30
2014,05,12,05,46,8.30
2014,05,12,05,47,8.30
2014,05,12,05,48,8.30
2014,05,12,05,49,8.30
2014,05,12,05,50,8.30
2014,05,12,05,51,8.30
2014,05,12,05,52,8.30
2014,05,12,05,53,8.30
2014,05,12,05,54,8.30
2014,05,12,05,55,8.30
2014,05,12,05,56,8.30
2014,05,12,05,57,8.30
2014,05,12,05,58,8.30
2014,05,12,05,59,8.30
2014,05,12,06,00,8.40
2014,05,12,06,01,8.40
2014,05,12,06,02,8.40
2014,05,12,06,03,8.50
2014,05,12,06,04,8.50
2014,05,12,06,05,8.50
2014,05,12,06,06,8.60
2014,05,12,06,07,8.60
2014,05,12,06,08,8.60
2014,05,12,06,09,8.60
2014,05,12,06,10,8.70
2014,05,12,06,11,8.70
2014,05,12,06,12,8.70
2014,05,12,06,13,8.70
2014,05,12,06,14,8.70
2014,05,12,06,15,8.70
2014,05,12,06,16,8.80
2014,05,12,06,17,8.80
2014,05,12,06,18,8.80
2014,05,12,06,19,8.80
2014,05,12,06,20,8.80
2014,05,12,06,21,8.80
2014,05,12,06,22,8.80
2014,05,12,06,23,8.80
2014,05,12,06,24,8.80
2014,05,12,06,25,8.80
2014,05,12,06,26,8.80
2014,05,12,06,27,8.80
2014,05,12,06,28,8.80
2014,05,12,06,29,8.80
2014,05,12,06,30,8.80
2014,05,12,06,31,8.80
2014,05,12,06,32,8.80
2014,05,12,06,33,8.80
2014,05,12,06,34,8.80
2014,05,12,06,35,8.80
2014,05,12,06,36,8.80
2014,05,12,06,37,8.80
2014,05,12,06,38,8.80
2014,05,12,06,39,8.80
2014,05,12,06,40,8.80
2014,05,12,06,41,8.80
2014,05,12,06,42,8.90
2014,05,12,06,43,8.90
2014,05,12,06,44,8.90
2014,05,12,06,45,8.90
2014,05,12,06,46,8.90
2014,05,12,06,47,9.00
2014,05,12,06,48,9.00
2014,05,12,06,49,9.10
2014,05,12,06,50,9.10
2014,05,12,06,51,9.10
2014,05,12,06,52,9.10
2014,05,12,06,53,9.20
2014,05,12,06,54,9.20
2014,05,12,06,55,9.20
2014,05,12,06,56,9.30
2014,05,12,06,57,9.30
2014,05,12,06,58,9.30
2014,05,12,06,59,9.30
2014,05,12,07,00,9.40
2014,05,12,07,01,9.40
2014,05,12,07,02,9.40
2014,05,12,07,03,9.50
2014,05,12,07,04,9.50
2014,05,12,07,05,9.60
2014,05,12,07,06,9.60
2014,05,12,07,07,9.60
2014,05,12,07,08,9.70
2014,05,12,07,09,9.70
2014,05,12,07,10,9.70
2014,05,12,07,11,9.80
2014,05,12,07,12,9.80
2014,05,12,07,13,9.80
2014,05,12,07,14,9.90
2014,05,12,07,15,9.90
2014,05,12,07,16,10.00
2014,05,12,07,17,10.00
2014,05,12,07,18,10.00
2014,05,12,07,19,10.10
2014,05,12,07,20,10.10
2014,05,12,07,21,10.20
2014,05,12,07,22,10.20
2014,05,12,07,23,10.20
2014,05,12,07,24,10.30
2014,05,12,07,25,10.30
2014,05,12,07,26,10.30
2014,05,12,07,27,10.40
2014,05,12,07,28,10.40
2014,05,12,07,29,10.50
2014,05,12,07,30,10.50
2014,05,12,07,31,10.60
2014,05,12,07,32,10.60
2014,05,12,07,33,10.60
2014,05,12,07,34,10.60
2014,05,12,07,35,10.60
2014,05,12,07,36,10.70
2014,05,12,07,37,10.70
2014,05,12,07,38,10.70
2014,05,12,07,39,10.70
2014,05,12,07,40,10.80
2014,05,12,07,41,10.80
2014,05,12,07,42,10.80
2014,05,12,07,43,10.80
2014,05,12,07,44,10.80
2014,05,12,07,45,10.90
2014,05,12,07,46,10.90
2014,05,12,07,47,10.90
2014,05,12,07,48,11.00
2014,05,12,07,49,11.00
2014,05,12,07,50,11.00
2014,05,12,07,51,11.00
2014,05,12,07,52,11.10
2014,05,12,07,53,11.10
2014,05,12,07,54,11.10
2014,05,12,07,55,11.10
2014,05,12,07,56,11.20
2014,05,12,07,57,11.20
2014,05,12,07,58,11.20
2014,05,12,07,59,11.20
2014,05,12,08,00,11.30
2014,05,12,08,01,11.30
2014,05,12,08,02,11.40
2014,05,12,08,03,11.40
2014,05,12,08,04,11.40
2014,05,12,08,05,11.50
2014,05,12,08,06,11.50
2014,05,12,08,07,11.50
2014,05,12,08,08,11.50
2014,05,12,08,09,11.60
2014,05,12,08,10,11.60
2014,05,12,08,11,11.60
2014,05,12,08,12,11.60
2014,05,12,08,13,11.70
2014,05,12,08,14,11.70
2014,05,12,08,15,11.80
2014,05,12,08,16,11.90
2014,05,12,08,17,12.00
2014,05,12,08,18,12.00
2014,05,12,08,19,12.10
2014,05,12,08,20,12.20
2014,05,12,08,21,12.30
2014,05,12,08,22,12.30
2014,05,12,08,23,12.40
2014,05,12,08,24,12.50
2014,05,12,08,25,12.50
2014,05,12,08,26,12.60
2014,05,12,08,27,12.60
2014,05,12,08,28,12.60
2014,05,12,08,29,12.70
2014,05,12,08,30,12.70
2014,05,12,08,31,12.80
2014,05,12,08,32,12.90
2014,05,12,08,33,13.00
2014,05,12,08,34,13.00
2014,05,12,08,35,13.10
2014,05,12,08,36,13.10
2014,05,12,08,37,13.20
2014,05,12,08,38,13.20
2014,05,12,08,39,13.30
2014,05,12,08,40,13.30
2014,05,12,08,41,13.30
2014,05,12,08,42,13.40
2014,05,12,08,43,13.40
2014,05,12,08,44,13.40
2014,05,12,08,45,13.40
2014,05,12,08,46,13.40
2014,05,12,08,47,13.40
2014,05,12,08,48,13.40
2014,05,12,08,49,13.40
2014,05,12,08,50,13.50
2014,05,12,08,51,13.50
2014,05,12,08,52,13.50
2014,05,12,08,53,13.50
2014,05,12,08,54,13.50
2014,05,12,08,55,13.60
2014,05,12,08,56,13.60
2014,05,12,08,57,13.60
2014,05,12,08,58,13.70
2014,05,12,08,59,13.70
2014,05,12,09,00,13.80
2014,05,12,09,01,13.80
2014,05,12,09,02,13.80
2014,05,12,09,03,13.80
2014,05,12,09,04,13.90
2014,05,12,09,05,13.90
2014,05,12,09,06,13.90
2014,05,12,09,07,14.00
2014,05,12,09,08,14.10
2014,05,12,09,09,14.10
2014,05,12,09,10,14.10
2014,05,12,09,11,14.20
2014,05,12,09,12,14.20
2014,05,12,09,13,14.20
2014,05,12,09,14,14.20
2014,05,12,09,15,14.10
2014,05,12,09,16,14.10
2014,05,12,09,17,14.20
2014,05,12,09,18,14.20
2014,05,12,09,19,14.20
2014,05,12,09,20,14.30
2014,05,12,09,21,14.30
2014,05,12,09,22,14.30
2014,05,12,09,23,14.30
2014,05,12,09,24,14.30
2014,05,12,09,25,14.30
2014,05,12,09,26,14.30
2014,05,12,09,27,14.30
2014,05,12,09,28,14.40
2014,05,12,09,29,14.40
2014,05,12,09,30,14.40
2014,05,12,09,31,14.40
2014,05,12,09,32,14.40
2014,05,12,09,33,14.30
2014,05,12,09,34,14.30
2014,05,12,09,35,14.30
2014,05,12,09,36,14.30
2014,05,12,09,37,14.40
2014,05,12,09,38,14.40
2014,05,12,09,39,14.50
2014,05,12,09,40,14.50
2014,05,12,09,41,14.50
2014,05,12,09,42,14.40
2014,05,12,09,43,14.40
2014,05,12,09,44,14.40
2014,05,12,09,45,14.40
2014,05,12,09,46,14.50
2014,05,12,09,47,14.50
2014,05,12,09,48,14.50
2014,05,12,09,49,14.60
2014,05,12,09,50,14.70
2014,05,12,09,51,14.80
2014,05,12,09,52,14.80
2014,05,12,09,53,14.90
2014,05,12,09,54,14.90
2014,05,12,09,55,15.00
2014,05,12,09,56,15.00
2014,05,12,09,57,15.10
2014,05,12,09,58,15.10
2014,05,12,09,59,15.10
2014,05,12,10,00,15.20
2014,05,12,10,01,15.30
2014,05,12,10,02,15.40
2014,05,12,10,03,15.50
2014,05,12,10,04,15.50
2014,05,12,10,05,15.60
2014,05,12,10,06,15.60
2014,05,12,10,07,15.60
2014,05,12,10,08,15.60
2014,05,12,10,09,15.60
2014,05,12,10,10,15.50
2014,05,12,10,11,15.50
2014,05,12,10,12,15.50
2014,05,12,10,13,15.40
2014,05,12,10,14,15.40
2014,05,12,10,15,15.30
2014,05,12,10,16,15.30
2014,05,12,10,17,15.30
2014,05,12,10,18,15.30
2014,05,12,10,19,15.30
2014,05,12,10,20,15.30
2014,05,12,10,21,15.20
2014,05,12,10,22,15.20
2014,05,12,10,23,15.30
2014,05,12,10,24,15.30
2014,05,12,10,25,15.30
2014,05,12,10,26,15.40
2014,05,12,10,27,15.50
2014,05,12,10,28,15.60
2014,05,12,10,29,15.70
2014,05,12,10,30,15.80
2014,05,12,10,31,15.80
2014,05,12,10,32,15.80
2014,05,12,10,33,15.80
2014,05,12,10,34,15.80
2014,05,12,10,35,15.80
2014,05,12,10,36,15.80
2014,05,12,10,37,15.90
2014,05,12,10,38,15.90
2014,05,12,10,39,15.90
2014,05,12,10,40,16.00
2014,05,12,10,41,16.00
2014,05,12,10,42,16.00
2014,05,12,10,43,16.10
2014,05,12,10,44,16.10
2014,05,12,10,45,16.10
2014,05,12,10,46,16.20
2014,05,12,10,47,16.20
2014,05,12,10,48,16.20
2014,05,12,10,49,16.30
2014,05,12,10,50,16.30
2014,05,12,10,51,16.30
2014,05,12,10,52,16.30
2014,05,12,10,53,16.40
2014,05,12,10,54,16.50
2014,05,12,10,55,16.70
2014,05,12,10,56,16.80
2014,05,12,10,57,16.90
2014,05,12,10,58,17.00
2014,05,12,10,59,17.10
2014,05,12,11,00,17.00
2014,05,12,11,01,17.00
2014,05,12,11,02,17.00
2014,05,12,11,03,17.00
2014,05,12,11,04,17.00
2014,05,12,11,05,16.90
2014,05,12,11,06,16.90
2014,05,12,11,07,17.00
2014,05,12,11,08,16.90
2014,05,12,11,09,16.80
2014,05,12,11,10,16.80
2014,05,12,11,11,16.80
2014,05,12,11,12,16.80
2014,05,12,11,13,16.80
2014,05,12,11,14,16.80
2014,05,12,11,15,16.80
2014,05,12,11,16,16.80
2014,05,12,11,17,16.80
2014,05,12,11,18,16.80
2014,05,12,11,19,16.70
2014,05,12,11,20,16.70
2014,05,12,11,21,16.70
2014,05,12,11,22,16.70
2014,05,12,11,23,16.70
2014,05,12,11,24,16.80
2014,05,12,11,25,16.80
2014,05,12,11,26,16.90
2014,05,12,11,27,16.90
2014,05,12,11,28,17.00
2014,05,12,11,29,17.00
2014,05,12,11,30,16.90
2014,05,12,11,31,16.90
2014,05,12,11,32,16.90
2014,05,12,11,33,16.90
2014,05,12,11,34,17.00
2014,05,12,11,35,17.00
2014,05,12,11,36,17.10
2014,05,12,11,37,17.10
2014,05,12,11,38,17.20
2014,05,12,11,39,17.20
2014,05,12,11,40,17.20
2014,05,12,11,41,17.20
2014,05,12,11,42,17.20
2014,05,12,11,43,17.30
2014,05,12,11,44,17.30
2014,05,12,11,45,17.30
2014,05,12,11,46,17.30
2014,05,12,11,47,17.20
2014,05,12,11,48,17.20
2014,05,12,11,49,17.20
2014,05,12,11,50,17.20
2014,05,12,11,51,17.20
2014,05,12,11,52,17.20
2014,05,12,11,53,17.20
2014,05,12,11,54,17.20
2014,05,12,11,55,17.20
2014,05,12,11,56,17.20
2014,05,12,11,57,17.30
2014,05,12,11,58,17.30
2014,05,12,11,59,17.30
2014,05,12,12,00,17.20
2014,05,12,12,01,17.20
2014,05,12,12,02,17.30
2014,05,12,12,03,17.30
2014,05,12,12,04,17.30
2014,05,12,12,05,17.30
2014,05,12,12,06,17.30
2014,05,12,12,07,17.30
2014,05,12,12,08,17.30
2014,05,12,12,09,17.40
2014,05,12,12,10,17.40
2014,05,12,12,11,17.50
2014,05,12,12,12,17.60
2014,05,12,12,13,17.80
2014,05,12,12,14,17.90
2014,05,12,12,15,17.90
2014,05,12,12,16,18.00
2014,05,12,12,17,18.10
2014,05,12,12,18,18.10
2014,05,12,12,19,18.20
2014,05,12,12,20,18.30
2014,05,12,12,21,18.40
2014,05,12,12,22,18.40
2014,05,12,12,23,18.50
2014,05,12,12,24,18.50
2014,05,12,12,25,18.60
2014,05,12,12,26,18.60
2014,05,12,12,27,18.60
2014,05,12,12,28,18.60
2014,05,12,12,29,18.70
2014,05,12,12,30,18.70
2014,05,12,12,31,18.80
2014,05,12,12,32,18.80
2014,05,12,12,33,18.90
2014,05,12,12,34,18.80
2014,05,12,12,35,18.80
2014,05,12,12,36,18.80
2014,05,12,12,37,18.80
2014,05,12,12,38,18.80
2014,05,12,12,39,18.80
2014,05,12,12,40,18.80
2014,05,12,12,41,18.80
2014,05,12,12,42,18.80
2014,05,12,12,43,18.80
2014,05,12,12,44,18.80
2014,05,12,12,45,18.80
2014,05,12,12,46,18.80
2014,05,12,12,47,18.80
2014,05,12,12,48,18.70
2014,05,12,12,49,18.70
2014,05,12,12,50,18.70
2014,05,12,12,51,18.70
2014,05,12,12,52,18.70
2014,05,12,12,53,18.60
2014,05,12,12,54,18.60
2014,05,12,12,55,18.60
2014,05,12,12,56,18.60
2014,05,12,12,57,18.60
2014,05,12,12,58,18.70
2014,05,12,12,59,18.60
2014,05,12,13,00,18.60
2014,05,12,13,01,18.60
2014,05,12,13,02,18.50
2014,05,12,13,03,18.40
2014,05,12,13,04,18.40
2014,05,12,13,05,18.40
2014,05,12,13,06,18.40
2014,05,12,13,07,18.40
2014,05,12,13,08,18.50
2014,05,12,13,09,18.50
2014,05,12,13,10,18.60
2014,05,12,13,11,18.60
2014,05,12,13,12,18.60
2014,05,12,13,13,18.60
2014,05,12,13,14,18.70
2014,05,12,13,15,18.70
2014,05,12,13,16,18.70
2014,05,12,13,17,18.70
2014,05,12,13,18,18.80
2014,05,12,13,19,18.80
2014,05,12,13,20,18.80
2014,05,12,13,21,18.80
2014,05,12,13,22,18.80
2014,05,12,13,23,18.80
2014,05,12,13,24,18.80
2014,05,12,13,25,18.80
2014,05,12,13,26,18.80
2014,05,12,13,27,18.70
2014,05,12,13,28,18.70
2014,05,12,13,29,18.80
2014,05,12,13,30,18.80
2014,05,12,13,31,18.80
2014,05,12,13,32,18.90
2014,05,12,13,33,18.90
2014,05,12,13,34,18.90
2014,05,12,13,35,19.00
2014,05,12,13,36,18.90
2014,05,12,13,37,18.90
2014,05,12,13,38,18.90
2014,05,12,13,39,19.00
2014,05,12,13,40,19.00
2014,05,12,13,41,19.00
2014,05,12,13,42,19.10
2014,05,12,13,43,19.10
2014,05,12,13,44,19.10
2014,05,12,13,45,19.10
2014,05,12,13,46,19.20
2014,05,12,13,47,19.30
2014,05,12,13,48,19.40
2014,05,12,13,49,19.40
2014,05,12,13,50,19.50
2014,05,12,13,51,19.50
2014,05,12,13,52,19.60
2014,05,12,13,53,19.60
2014,05,12,13,54,19.60
2014,05,12,13,55,19.60
2014,05,12,13,56,19.60
2014,05,12,13,57,19.60
2014,05,12,13,58,19.60
2014,05,12,13,59,19.60
2014,05,12,14,00,19.60
2014,05,12,14,01,19.60
2014,05,12,14,02,19.60
2014,05,12,14,03,19.70
2014,05,12,14,04,19.90
2014,05,12,14,05,20.00
2014,05,12,14,06,20.10
2014,05,12,14,07,20.10
2014,05,12,14,08,20.10
2014,05,12,14,09,20.10
2014,05,12,14,10,20.10
2014,05,12,14,11,20.10
2014,05,12,14,12,20.10
2014,05,12,14,13,20.10
2014,05,12,14,14,20.20
2014,05,12,14,15,20.20
2014,05,12,14,16,20.10
2014,05,12,14,17,20.10
2014,05,12,14,18,20.10
2014,05,12,14,19,20.10
2014,05,12,14,20,20.10
2014,05,12,14,21,20.10
2014,05,12,14,22,20.10
2014,05,12,14,23,20.20
2014,05,12,14,24,20.20
2014,05,12,14,25,20.20
2014,05,12,14,26,20.20
2014,05,12,14,27,20.30
2014,05,12,14,28,20.40
2014,05,12,14,29,20.40
2014,05,12,14,30,20.40
2014,05,12,14,31,20.50
2014,05,12,14,32,20.50
2014,05,12,14,33,20.60
2014,05,12,14,34,20.60
2014,05,12,14,35,20.50
2014,05,12,14,36,20.40
2014,05,12,14,37,20.40
2014,05,12,14,38,20.30
2014,05,12,14,39,20.30
2014,05,12,14,40,20.30
2014,05,12,14,41,20.30
2014,05,12,14,42,20.30
2014,05,12,14,43,20.30
2014,05,12,14,44,20.20
2014,05,12,14,45,20.20
2014,05,12,14,46,20.20
2014,05,12,14,47,20.20
2014,05,12,14,48,20.30
2014,05,12,14,49,20.30
2014,05,12,14,50,20.40
2014,05,12,14,51,20.50
2014,05,12,14,52,20.60
2014,05,12,14,53,20.60
2014,05,12,14,54,20.70
2014,05,12,14,55,20.70
2014,05,12,14,56,20.70
2014,05,12,14,57,20.70
2014,05,12,14,58,20.70
2014,05,12,14,59,20.70
2014,05,12,15,00,20.80
2014,05,12,15,01,20.90
2014,05,12,15,02,20.90
2014,05,12,15,03,21.00
2014,05,12,15,04,21.00
2014,05,12,15,05,21.00
2014,05,12,15,06,21.00
2014,05,12,15,07,21.00
2014,05,12,15,08,21.00
2014,05,12,15,09,20.90
2014,05,12,15,10,20.90
2014,05,12,15,11,20.90
2014,05,12,15,12,20.90
2014,05,12,15,13,20.90
2014,05,12,15,14,21.00
2014,05,12,15,15,21.10
2014,05,12,15,16,21.20
2014,05,12,15,17,21.30
2014,05,12,15,18,21.30
2014,05,12,15,19,21.40
2014,05,12,15,20,21.40
2014,05,12,15,21,21.40
2014,05,12,15,22,21.40
2014,05,12,15,23,21.50
2014,05,12,15,24,21.60
2014,05,12,15,25,21.60
2014,05,12,15,26,21.60
2014,05,12,15,27,21.70
2014,05,12,15,28,21.60
2014,05,12,15,29,21.60
2014,05,12,15,30,21.50
2014,05,12,15,31,21.50
2014,05,12,15,32,21.40
2014,05,12,15,33,21.40
2014,05,12,15,34,21.40
2014,05,12,15,35,21.30
2014,05,12,15,36,21.30
2014,05,12,15,37,21.30
2014,05,12,15,38,21.30
2014,05,12,15,39,21.30
2014,05,12,15,40,21.30
2014,05,12,15,41,21.30
2014,05,12,15,42,21.30
2014,05,12,15,43,21.40
2014,05,12,15,44,21.40
2014,05,12,15,45,21.30
2014,05,12,15,46,21.30
2014,05,12,15,47,21.30
2014,05,12,15,48,21.40
2014,05,12,15,49,21.40
2014,05,12,15,50,21.40
2014,05,12,15,51,21.40
2014,05,12,15,52,21.40
2014,05,12,15,53,21.40
2014,05,12,15,54,21.40
2014,05,12,15,55,21.40
2014,05,12,15,56,21.40
2014,05,12,15,57,21.40
2014,05,12,15,58,21.40
2014,05,12,15,59,21.40
2014,05,12,16,00,21.40
2014,05,12,16,01,21.40
2014,05,12,16,02,21.50
2014,05,12,16,03,21.50
2014,05,12,16,04,21.60
2014,05,12,16,05,21.60
2014,05,12,16,06,21.60
2014,05,12,16,07,21.60
2014,05,12,16,08,21.50
2014,05,12,16,09,21.40
2014,05,12,16,10,21.40
2014,05,12,16,11,21.40
2014,05,12,16,12,21.50
2014,05,12,16,13,21.50
2014,05,12,16,14,21.50
2014,05,12,16,15,21.60
2014,05,12,16,16,21.60
2014,05,12,16,17,21.60
2014,05,12,16,18,21.70
2014,05,12,16,19,21.70
2014,05,12,16,20,21.70
2014,05,12,16,21,21.70
2014,05,12,16,22,21.70
2014,05,12,16,23,21.70
2014,05,12,16,24,21.70
2014,05,12,16,25,21.70
2014,05,12,16,26,21.70
2014,05,12,16,27,21.70
2014,05,12,16,28,21.60
2014,05,12,16,29,21.60
2014,05,12,16,30,21.50
2014,05,12,16,31,21.50
2014,05,12,16,32,21.50
2014,05,12,16,33,21.60
2014,05,12,16,34,21.60
2014,05,12,16,35,21.70
2014,05,12,16,36,21.70
2014,05,12,16,37,21.70
2014,05,12,16,38,21.70
2014,05,12,16,39,21.70
2014,05,12,16,40,21.70
2014,05,12,16,41,21.70
2014,05,12,16,42,21.70
2014,05,12,16,43,21.70
2014,05,12,16,44,21.80
2014,05,12,16,45,21.80
2014,05,12,16,46,21.80
2014,05,12,16,47,21.70
2014,05,12,16,48,21.60
2014,05,12,16,49,21.50
2014,05,12,16,50,21.50
2014,05,12,16,51,21.40
2014,05,12,16,52,21.40
2014,05,12,16,53,21.40
2014,05,12,16,54,21.40
2014,05,12,16,55,21.50
2014,05,12,16,56,21.60
2014,05,12,16,57,21.60
2014,05,12,16,58,21.60
2014,05,12,16,59,21.60
2014,05,12,17,00,21.70
2014,05,12,17,01,21.80
2014,05,12,17,02,22.00
2014,05,12,17,03,22.10
2014,05,12,17,04,22.20
2014,05,12,17,05,22.20
2014,05,12,17,06,22.30
2014,05,12,17,07,22.30
2014,05,12,17,08,22.30
2014,05,12,17,09,22.20
2014,05,12,17,10,22.20
2014,05,12,17,11,22.10
2014,05,12,17,12,22.00
2014,05,12,17,13,22.00
2014,05,12,17,14,21.90
2014,05,12,17,15,21.90
2014,05,12,17,16,21.90
2014,05,12,17,17,21.90
2014,05,12,17,18,21.90
2014,05,12,17,19,21.90
2014,05,12,17,20,21.90
2014,05,12,17,21,21.90
2014,05,12,17,22,21.90
2014,05,12,17,23,21.90
2014,05,12,17,24,21.90
2014,05,12,17,25,21.90
2014,05,12,17,26,21.90
2014,05,12,17,27,21.90
2014,05,12,17,28,21.90
2014,05,12,17,29,21.80
2014,05,12,17,30,21.80
2014,05,12,17,31,21.70
2014,05,12,17,32,21.70
2014,05,12,17,33,21.70
2014,05,12,17,34,21.70